#timestamp,LO_Frequency,Hit,StdDev 
1639090815.9,286047454.7,N
1639090835.7,286047455.1,N
1639090855.5,286047456.8,N
1639090875.4,286047454.2,N
1639090895.2,286047456.8,N
1639090915.1,286047456.0,N
1639090916.0,286047456.0,N
1639090935.8,286047456.5,N
1639090955.6,286047457.0,N
1639090975.5,286047454.2,N
1639090995.3,286047457.2,N
1639091015.1,286047456.6,N
1639091035.9,286047457.9,N
1639091055.7,286047461.9,Y
1639091075.5,286047003.3,P
1639091095.4,286047003.8,N
1639091115.2,286047004.3,N
1639091135.0,286047004.1,N
1639091136.0,286047004.1,N
1639091155.8,286047003.8,N
1639091175.6,286047003.8,N
1639091195.5,286047004.7,N
1639091215.3,286047007.1,N
1639091235.1,286047004.7,N
1639091255.9,286047003.1,N
1639091275.7,286047003.1,N
1639091295.5,286047001.8,N
1639091315.4,286047001.9,N
1639091335.2,286047002.0,N
1639091355.0,286047001.9,N
1639091355.9,286047001.9,N
1639091375.8,286047001.7,N
1639091395.6,286047003.7,N
1639091415.5,286047003.7,N
1639091435.3,286047003.2,N
1639091455.1,286047004.1,N
1639091475.9,286047003.5,N
1639091495.7,286047004.0,N
1639091515.5,286047004.2,N
1639091535.4,286047003.8,N
1639091555.2,286047004.4,N
1639091575.0,286047003.2,N
1639091575.9,286047003.2,N
1639091595.8,286047003.8,N
1639091615.6,286047004.1,Y
1639091635.4,286047001.0,P
1639091655.3,286047000.2,N
1639091675.1,286047000.2,N
1639091695.9,286047000.0,N
1639091715.7,286047000.5,N
1639091735.5,286047000.4,N
1639091755.4,286047000.2,N
1639091775.2,286047000.0,N
1639091795.0,286047001.0,N
1639091795.9,286047001.0,N
1639091815.8,286047001.0,N
1639091835.6,286047000.7,N
1639091855.4,286046998.6,N
1639091875.3,286047000.3,N
1639091895.1,286047000.4,N
1639091915.8,286047000.1,N
1639091935.7,286047000.2,N
1639091955.5,286047004.0,Y
1639091975.4,286047001.5,P
1639091995.2,286047000.4,N
1639092015.0,286047000.6,N
1639092015.9,286047000.6,N
1639092035.8,286047000.9,N
1639092055.6,286047000.4,N
1639092075.4,286047002.8,Y
1639092095.3,286047000.7,P
1639092115.1,286047000.9,P
1639092135.8,286046998.1,P
1639092155.7,286046998.6,N
1639092175.5,286046998.4,N
1639092195.4,286046998.8,N
1639092215.2,286046999.3,N
1639092235.0,286046998.4,N
1639092235.9,286046998.4,N
1639092255.8,286046998.8,N
1639092275.6,286046998.9,N
1639092295.4,286047000.8,N
1639092315.3,286047000.8,N
1639092335.1,286047000.9,N
1639092355.8,286046998.7,N
1639092375.7,286047000.4,N
1639092395.5,286046999.9,N
1639092415.4,286047002.7,N
1639092435.2,286046999.8,N
1639092455.0,286046998.2,N
1639092455.9,286046998.2,N
1639092475.8,286046998.8,N
1639092495.6,286046998.5,N
1639092515.4,286046998.8,N
1639092535.3,286046999.0,N
1639092555.1,286046998.3,N
1639092575.8,286047000.7,N
1639092595.7,286047000.8,N
1639092615.5,286046998.5,N
1639092635.3,286046999.4,N
1639092655.2,286046999.3,N
1639092675.0,286047000.2,N
1639092675.9,286047000.2,N
1639092695.8,286046999.9,N
1639092715.6,286047000.5,N
1639092735.4,286047000.7,N
1639092755.3,286047000.4,N
1639092775.1,286047002.4,N
1639092795.8,286046999.7,N
1639092815.7,286047001.0,N
1639092835.5,286047000.7,N
1639092855.3,286047000.4,N
1639092875.2,286046998.1,N
1639092895.0,286046998.8,N
1639092895.9,286046998.8,N
1639092915.8,286046998.5,N
1639092935.6,286046998.6,N
1639092955.4,286046999.3,N
1639092975.3,286046999.3,N
1639092995.1,286046996.7,Y
1639093015.8,286046998.5,P
1639093035.7,286046998.5,N
1639093055.5,286047000.8,N
1639093075.3,286047000.2,N
1639093095.2,286047000.8,N
1639093115.0,286047001.2,N
1639093115.9,286047001.2,N
1639093135.8,286047001.2,N
1639093155.6,286047000.6,N
1639093175.4,286047000.5,N
1639093195.3,286047000.5,N
1639093215.1,286047000.6,N
1639093216.0,286047000.6,N
1639093235.8,286047000.5,N
1639093255.7,286046998.7,N
1639093275.5,286046998.7,N
1639093295.3,286046998.4,N
1639093315.2,286046999.0,N
1639093335.0,286046998.6,N
1639093335.9,286046998.6,N
1639093355.7,286047000.7,N
1639093375.6,286047000.1,N
1639093395.4,286047002.3,N
1639093415.3,286047001.5,N
1639093435.1,286047002.5,N
1639093436.0,286047002.5,N
1639093455.8,286047002.0,N
1639093475.7,286047000.1,N
1639093495.5,286046999.8,N
1639093515.3,286046999.7,N
1639093535.2,286047002.7,N
1639093555.0,286047002.4,N
1639093555.9,286047002.4,N
1639093575.7,286047002.5,N
1639093595.6,286047002.5,N
1639093615.4,286047000.0,N
1639093635.2,286047002.7,N
1639093655.1,286047000.2,N
1639093656.0,286047000.2,N
1639093675.8,286047000.2,N
1639093695.7,286047000.2,N
1639093715.5,286047000.3,N
1639093735.3,286047000.4,N
1639093755.2,286047000.3,N
1639093775.9,286047000.0,N
1639093795.7,286046999.9,N
1639093815.6,286047000.0,N
1639093835.4,286047000.2,N
1639093855.2,286047000.4,N
1639093875.1,286047000.3,N
1639093876.0,286047000.3,N
1639093895.8,286047000.2,N
1639093915.7,286047000.3,N
1639093935.5,286047000.8,N
1639093955.3,286047000.4,N
1639093975.2,286046999.8,N
1639093995.9,286047002.6,N
1639094015.7,286047000.1,N
1639094035.6,286046999.8,N
1639094055.4,286046999.7,N
1639094075.2,286047002.5,N
1639094095.1,286047000.2,N
1639094096.0,286047000.2,N
1639094115.8,286047002.0,N
1639094135.7,286047002.8,Y
1639094155.5,286046999.8,P
1639094175.3,286047000.3,N
1639094195.2,286047001.8,P
1639094215.9,286047002.7,Y
1639094235.7,286046999.9,P
1639094255.6,286047000.4,N
1639094275.4,286046999.9,N
1639094295.2,286047000.6,N
1639094315.1,286046999.8,N
1639094316.0,286046999.8,N
1639094335.8,286047000.1,N
1639094355.7,286047000.3,N
1639094375.5,286047001.2,Y
1639094395.3,286046998.1,P
